CAPE
0 0 0 0 0 0 0 0 0 0 0 0 0 0 0 0 48 468 609 643 667 496 474 353 402 792 952 1328 1123 1238 1488 1512
0 0 0 0 0 0 0 0 0 0 0 0 0 0 0 0 0 140 524 696 916 660 575 437 386 709 1077 1546 1484 1443 1511 1706
0 0 0 0 0 0 0 0 0 0 0 0 0 0 0 0 0 34 498 706 1072 940 755 607 464 718 948 1322 1770 1791 1724 1529
0 0 0 0 0 0 0 0 0 0 0 0 0 0 0 0 0 0 275 356 1161 1182 1026 863 648 734 914 1077 1632 1761 1862 1730
0 0 0 0 0 0 0 0 0 0 0 0 0 0 0 0 0 0 23 334 1150 1355 1282 1110 861 741 895 1057 1392 1831 2056 2123
0 0 0 0 0 0 0 0 0 0 0 0 0 0 0 0 0 0 37 395 1115 1278 1429 1374 1133 954 936 993 1341 1877 2076 2222
0 0 0 0 0 0 0 0 0 0 0 0 0 0 0 0 0 0 5 326 942 1185 1307 1573 1462 1236 1189 1115 1245 1537 2160 2336
0 0 0 0 0 0 0 0 0 0 0 0 0 4 0 0 0 0 26 202 526 975 1263 1538 1690 1602 1464 1457 1417 1466 1977 2229
0 0 0 0 0 1 0 0 0 0 0 0 0 1 0 0 0 0 0 0 0 0 500 1473 1708 1800 1788 1809 1680 1717 1715 2160
0 0 0 0 0 0 0 0 0 0 2 0 27 67 10 0 0 0 0 0 0 0 0 0 551 1932 1845 1902 2094 1959 1937 1955
0 0 0 0 0 0 11 9 3 106 110 23 23 2 31 82 150 191 143 94 127 147 37 0 0 6 2049 2060 2182 2325 2222 2217
0 0 0 0 0 0 0 3 0 28 250 21 4 5 95 43 104 286 397 430 240 119 147 143 316 270 1023 2195 2328 2347 2469 2613
0 0 0 0 0 0 0 0 0 0 0 0 0 0 0 1 121 635 904 863 815 440 259 303 277 299 863 1292 1976 2035 2272 2437
0 0 0 0 0 0 0 0 0 0 0 0 0 0 0 0 27 408 615 1246 1755 1220 743 273 139 1088 644 183 1415 2028 2254 2278
0 0 0 0 0 0 0 0 0 0 0 0 0 0 0 0 0 16 137 662 1769 2000 2238 2001 983 858 844 1446 1601 2103 1825 2058
0 0 0 0 0 0 0 0 0 0 0 0 0 0 0 0 0 14 0 110 1321 1866 2197 3103 2829 2325 2236 2423 2221 1504 2149 3013
0 0 0 0 0 0 0 0 0 0 0 0 0 0 0 0 0 50 13 0 141 1310 1749 2162 2367 2545 2509 2529 2799 2981 1624 2769
0 0 0 0 0 0 0 0 0 0 0 0 0 0 0 0 0 0 10 0 0 925 1392 1438 2016 1896 1696 1736 2324 2971 3394 3133
0 0 0 0 0 0 0 0 0 0 0 0 0 0 0 0 0 0 0 0 0 347 891 1428 1367 1368 1125 1301 1944 2416 2740 3346
CIN
-0 -0 -0 -0 -0 -0 -0 -0 -0 -0 -0 -0 -0 -0 -0 -0 -19 -46 -65 -111 -177 -212 -241 -235 -246 -241 -248 -220 -208 -189 -162 -149
-0 -0 -0 -0 -0 -0 -0 -0 -0 -0 -0 -0 -0 -0 -0 -0 -0 -43 -53 -96 -149 -199 -212 -264 -249 -243 -241 -224 -209 -201 -180 -156
-0 -0 -0 -0 -0 -0 -0 -0 -0 -0 -0 -0 -0 -0 -0 -0 -0 -28 -51 -85 -136 -183 -208 -272 -239 -248 -271 -247 -198 -159 -168 -214
-0 -0 -0 -0 -0 -0 -0 -0 -0 -0 -0 -0 -0 -0 -0 -0 -0 -0 -60 -80 -129 -173 -182 -249 -245 -261 -274 -289 -255 -250 -218 -208
-0 -0 -0 -0 -0 -0 -0 -0 -0 -0 -0 -0 -0 -0 -0 -0 -0 -0 -38 -59 -106 -147 -161 -214 -237 -229 -260 -289 -290 -264 -226 -188
-0 -0 -0 -0 -0 -0 -0 -0 -0 -0 -0 -0 -0 -0 -0 -0 -0 -0 -43 -54 -87 -122 -145 -184 -218 -226 -248 -284 -278 -268 -250 -226
-0 -0 -0 -0 -0 -0 -0 -0 -0 -0 -0 -0 -0 -24 -0 -0 -0 -0 -42 -42 -73 -95 -118 -133 -175 -244 -253 -275 -269 -259 -265 -254
-0 -0 -0 -0 -0 -0 -0 -0 -0 -0 -0 -0 -0 -82 -0 -0 -0 -0 -152 -67 -77 -86 -97 -103 -117 -199 -224 -261 -255 -270 -286 -304
-0 -0 -0 -0 -0 -6 -0 -0 -0 -0 -0 -0 -0 -24 -0 -0 -0 -0 -0 -0 -0 -0 -58 -79 -108 -151 -166 -179 -252 -257 -297 -292
-0 -0 -0 -0 -4 -17 -0 -0 -0 -0 -35 -0 -76 -179 -141 -0 -0 -0 -0 -0 -0 -0 -0 -0 -119 -84 -99 -136 -178 -211 -262 -323
-0 -0 -0 -0 -0 -4 -42 -193 -74 -186 -35 -78 -105 -63 -268 -309 -332 -325 -331 -325 -307 -302 -232 -0 -0 -23 -78 -107 -143 -167 -196 -269
-0 -0 -0 -0 -0 -0 -0 -201 -0 -469 -228 -73 -80 -111 -311 -400 -413 -366 -317 -260 -261 -309 -316 -269 -209 -202 -87 -74 -104 -133 -162 -205
-0 -0 -0 -0 -0 -0 -0 -0 -0 -0 -0 -0 -0 -0 -0 -379 -449 -287 -283 -251 -230 -223 -237 -241 -243 -218 -127 -92 -77 -98 -122 -162
-0 -0 -0 -0 -0 -0 -0 -0 -0 -0 -0 -0 -0 -0 -0 -0 -382 -377 -337 -235 -127 -150 -180 -242 -281 -147 -167 -243 -131 -113 -129 -115
-0 -0 -0 -0 -0 -0 -0 -0 -0 -0 -0 -0 -0 -0 -0 -0 -0 -389 -513 -376 -213 -121 -114 -113 -178 -138 -137 -149 -146 -123 -144 -156
-0 -0 -0 -0 -0 -2 -0 -0 -0 -0 -0 -0 -0 -0 -0 -0 -0 -447 -0 -483 -275 -194 -111 -65 -99 -139 -190 -186 -185 -193 -122 -107
-0 -0 -0 -0 -0 -0 -0 -0 -0 -0 -0 -0 -0 -0 -0 -0 -0 -336 -350 -0 -393 -229 -116 -40 -59 -97 -170 -217 -202 -163 -207 -141
-0 -0 -0 -0 -0 -0 -0 -0 -0 -0 -0 -0 -0 -0 -0 -0 -0 -111 -688 -0 -0 -214 -98 -79 -61 -146 -204 -227 -182 -148 -125 -138
-0 -0 -0 -0 -0 -0 -0 -0 -0 -0 -0 -0 -0 -0 -0 -0 -0 -0 -0 -0 -0 -305 -152 -66 -95 -155 -254 -262 -189 -176 -148 -88
Wind_Speed
54 35 37 30 36 32 32 29 33 33 46 48 48 49 47 31 18 24 28 32 30 30 28 27 24 23 25 26 26 27 30 29
42 49 49 47 27 35 37 37 41 38 41 44 41 43 52 45 45 28 32 36 32 32 29 26 26 24 24 23 28 26 29 29
42 46 57 40 43 36 36 37 36 35 38 40 43 37 43 50 22 20 31 33 32 34 31 27 27 23 25 24 26 26 28 30
60 46 50 45 43 36 38 42 42 37 40 26 28 31 35 35 19 13 26 27 33 35 32 27 27 23 24 25 27 29 26 25
56 50 47 55 41 51 37 33 47 40 32 25 26 10 20 15 21 31 16 24 30 32 32 28 28 26 24 25 26 24 23 23
52 52 39 40 49 42 40 43 46 46 33 21 14 9 12 12 19 17 16 19 26 28 32 29 26 25 24 23 22 20 22 22
46 44 40 41 42 41 50 47 42 44 33 19 12 6 9 14 12 15 16 17 22 27 26 26 23 23 21 21 22 21 22 24
43 40 35 33 37 41 40 48 49 43 40 20 12 3 1 4 7 6 10 11 14 18 21 24 25 24 22 20 25 25 25 28
40 31 31 36 35 36 40 40 45 44 34 16 16 11 5 3 6 6 6 6 3 5 13 17 16 21 21 20 21 25 27 25
36 28 40 31 23 26 37 35 43 45 23 15 9 1 1 6 8 9 8 9 11 9 10 16 18 17 22 17 17 23 27 27
32 34 30 29 20 21 20 17 16 25 25 13 9 6 6 6 7 9 10 12 11 12 14 16 21 11 12 17 19 18 25 22
30 35 36 21 25 27 23 18 12 9 7 15 15 15 15 12 11 13 13 15 17 19 19 19 20 23 15 16 18 21 23 25
35 33 27 19 21 16 26 20 9 7 5 6 10 11 13 12 13 14 16 19 22 25 26 25 24 20 19 14 17 17 16 15
35 31 33 18 13 7 14 11 10 9 5 11 11 11 13 14 16 14 16 16 19 20 25 28 27 22 22 24 27 31 28 19
28 29 15 17 17 13 12 16 13 12 13 13 15 16 18 18 18 18 17 17 19 20 23 26 28 26 28 23 25 29 32 31
31 33 31 23 26 19 20 21 21 19 18 19 20 21 21 21 21 21 20 21 23 23 23 23 23 23 24 27 29 32 33 33
40 38 35 30 28 26 28 27 25 26 26 26 25 25 24 25 24 24 24 25 26 27 29 28 26 27 27 29 31 33 36 32
51 48 47 52 43 38 36 34 33 31 27 25 26 28 27 29 28 27 28 30 30 30 31 30 27 27 28 30 30 29 29 27
60 55 57 57 54 51 46 42 39 36 33 31 31 29 29 32 33 33 32 33 33 34 33 28 27 28 30 29 29 28 27 25
Wind_Direction
233 240 238 234 237 245 256 257 256 256 247 246 233 241 239 256 233 187 183 179 175 173 172 174 173 174 174 177 179 179 179 179
240 235 237 238 240 238 243 245 244 246 239 224 234 213 225 242 241 195 181 178 174 174 172 172 173 175 176 177 178 179 180 180
237 230 227 235 236 236 243 244 246 249 245 226 220 204 207 229 242 193 182 179 175 174 172 171 173 173 174 175 177 178 179 182
230 233 232 237 236 236 237 238 241 244 239 289 276 195 190 189 213 209 189 185 175 174 172 171 171 173 174 175 175 179 180 180
229 236 237 230 232 232 240 242 234 240 249 285 283 211 179 197 202 217 181 188 177 173 173 171 172 173 173 175 176 174 176 177
229 229 234 237 228 231 234 234 232 233 248 278 298 247 218 184 246 185 208 186 180 176 173 172 171 172 174 175 175 176 177 178
236 233 236 247 226 227 229 231 233 231 244 254 275 297 235 236 256 221 208 183 181 180 179 176 173 173 177 178 177 179 179 181
231 229 240 246 237 227 232 231 231 233 239 249 245 249 333 261 234 221 220 224 216 200 194 181 177 176 179 181 178 179 181 186
223 228 239 235 232 236 229 232 231 231 238 238 242 234 217 209 225 216 213 223 200 227 225 222 199 182 182 183 182 180 183 183
222 228 226 228 251 260 231 232 231 230 242 216 216 186 266 238 218 231 240 247 249 262 256 252 255 186 190 212 205 187 187 188
223 227 231 228 257 258 231 230 269 241 230 187 180 177 262 263 247 246 252 255 266 273 272 274 262 245 199 210 201 205 192 193
225 220 219 239 272 264 241 224 278 244 198 204 190 215 245 265 261 261 270 269 268 272 274 275 276 265 251 221 213 204 202 199
225 226 232 273 291 262 217 228 255 233 210 175 195 233 258 268 264 272 271 272 275 269 267 273 279 282 270 251 219 212 223 237
228 228 232 269 266 222 228 236 239 237 247 228 242 259 272 274 273 278 278 282 282 280 268 265 269 274 273 268 263 254 259 256
236 228 266 257 272 270 276 251 255 255 254 256 256 265 273 275 278 277 282 286 290 291 286 279 272 272 267 275 269 262 259 263
249 242 258 265 252 279 275 262 256 259 260 263 265 270 274 278 284 281 285 292 293 290 295 293 290 286 284 280 278 270 266 265
257 252 257 248 258 268 266 263 265 264 264 266 268 269 274 276 283 284 287 290 292 291 288 288 290 287 286 283 281 276 267 269
251 257 257 250 259 262 261 261 264 267 268 269 272 272 274 273 279 285 285 288 285 286 288 286 291 292 289 284 279 277 275 275
259 261 259 257 259 260 261 261 264 266 268 270 272 274 276 276 279 283 283 284 281 277 283 289 290 292 292 287 280 278 280 278